Probability
26 16 13 13 16 23 19 19 23 16 13 13 23 26 26 13 16 16 10 32 58 58 58 52 52 58 48 48 48 55 55 55 65 65 65 55 58 55 58 58 48 52 52
16 13 13 13 10 10 16 19 13 13 10 10 6 13 13 13 10 16 16 19 35 45 55 52 52 45 45 48 42 48 39 35 42 45 48 52 52 42 48 52 52 48 39
16 16 13 6 6 3 0 10 3 0 0 0 0 3 3 10 6 6 3 6 19 26 39 42 48 48 39 29 35 35 35 35 42 42 39 39 45 35 29 35 35 42 39
10 10 6 3 3 3 3 3 0 0 0 0 0 0 3 3 0 0 0 3 6 6 16 32 32 32 29 35 39 32 26 29 29 32 32 35 35 35 32 32 32 26 29
6 6 6 3 3 0 0 0 0 0 0 0 0 0 0 0 0 0 3 3 0 3 3 10 13 26 26 23 29 35 26 23 23 26 26 26 35 29 35 29 19 19 19
3 3 3 3 3 0 0 0 0 0 0 0 0 0 0 0 0 0 0 0 0 0 0 3 6 10 13 13 16 16 19 26 29 26 23 19 39 26 13 10 10 10 13
3 3 3 0 0 0 0 0 0 0 0 0 0 0 0 0 0 0 0 0 0 0 0 0 3 6 6 10 10 13 13 13 16 16 23 23 19 23 10 6 6 6 0
0 3 3 0 0 0 0 0 0 0 0 0 0 0 0 0 0 0 0 0 0 0 0 0 0 3 3 0 3 13 13 10 6 13 19 19 16 16 16 6 6 6 3
0 0 0 0 0 0 0 0 0 0 0 0 0 0 0 0 0 0 0 0 0 0 0 0 0 0 0 0 0 3 13 6 6 6 10 13 10 10 10 3 3 6 6
0 3 0 0 0 0 0 0 0 0 0 0 0 0 0 0 0 0 0 0 0 0 0 0 0 0 0 3 0 0 0 0 0 6 6 6 6 6 6 0 3 6 6
0 6 6 3 3 0 0 0 0 0 0 0 0 0 0 0 0 0 0 0 0 0 0 0 0 0 0 3 0 0 0 0 0 0 3 3 0 6 3 0 3 3 3
0 3 3 3 6 3 0 0 0 0 0 0 0 0 0 0 0 0 0 0 0 0 0 0 0 0 3 3 3 0 0 0 0 0 0 0 0 3 3 0 3 3 3
0 0 3 3 3 3 0 0 0 0 0 0 0 0 0 0 0 0 0 0 0 0 0 0 0 0 0 3 3 0 0 0 0 0 0 0 0 0 3 0 0 3 3
0 0 0 0 0 0 0 0 0 0 0 0 0 0 0 0 0 0 0 0 0 0 0 0 0 0 0 0 0 0 0 0 0 0 0 0 0 0 0 0 0 0 0
0 0 0 0 0 0 0 0 0 0 0 0 0 0 0 0 0 0 0 0 0 0 0 0 0 0 0 0 0 0 0 0 0 0 0 0 0 0 0 0 0 0 0
0 0 0 0 0 0 0 0 0 0 0 0 0 0 0 0 0 0 0 0 0 0 0 0 0 0 0 0 0 0 0 0 0 0 0 0 0 0 0 0 0 0 0
0 0 0 0 0 0 0 0 0 0 0 0 0 0 0 0 0 0 0 0 0 0 0 0 0 0 0 0 0 0 0 0 0 0 0 0 0 0 0 0 0 0 0
0 0 0 0 0 0 0 0 0 0 0 0 0 0 0 0 0 0 0 0 0 0 0 0 0 0 0 0 0 0 0 0 0 0 0 0 0 0 0 0 0 0 0
0 0 0 0 0 0 0 0 0 0 0 0 0 0 0 0 0 0 0 0 0 0 0 0 0 0 0 0 0 0 0 0 0 0 0 0 0 0 0 0 0 0 0
0 0 0 0 0 0 0 0 0 0 0 0 0 0 0 0 0 0 0 0 0 0 0 0 0 0 0 0 0 0 0 0 0 0 0 0 0 0 0 0 0 0 0
0 0 0 0 0 0 0 0 0 0 0 0 0 0 0 0 0 0 0 0 0 0 0 0 0 0 0 0 0 0 0 0 0 0 0 0 0 0 0 0 0 0 0
0 0 0 0 0 0 0 0 0 0 0 0 0 0 0 0 0 0 0 0 0 0 0 0 0 0 0 0 0 0 0 0 0 0 0 0 0 0 0 0 0 0 0
0 0 0 0 0 0 0 0 0 0 0 0 0 0 0 0 0 0 0 0 0 0 0 0 0 0 0 0 0 0 0 0 0 0 0 0 0 0 0 0 0 0 0
0 0 0 0 0 0 0 0 0 0 0 0 0 0 0 0 0 0 0 0 0 0 0 0 0 0 0 0 0 0 0 0 0 0 0 0 0 0 0 0 0 0 0
0 0 0 0 0 0 0 0 0 0 0 0 0 0 0 0 0 0 0 0 0 0 0 0 0 0 0 0 0 0 0 0 0 0 0 0 0 0 0 0 0 0 0
0 0 0 0 0 0 0 0 0 0 0 0 0 0 0 0 0 0 0 0 0 0 0 0 0 0 0 0 0 0 0 0 0 0 0 0 0 0 0 0 0 0 0
Height
5845 5844 5842 5840 5838 5837 5835 5833 5831 5830 5828 5827 5826 5825 5824 5823 5823 5823 5823 5823 5823 5823 5823 5824 5824 5825 5827 5828 5830 5831 5832 5833 5835 5836 5838 5839 5840 5842 5843 5844 5845 5847 5848
5839 5837 5836 5834 5832 5831 5829 5827 5825 5823 5822 5821 5819 5818 5817 5816 5816 5815 5816 5816 5816 5816 5816 5817 5818 5819 5820 5822 5823 5825 5826 5827 5829 5830 5832 5833 5834 5836 5837 5839 5840 5841 5842
5833 5832 5830 5828 5826 5824 5822 5820 5818 5816 5815 5814 5812 5811 5809 5808 5808 5808 5808 5808 5808 5808 5809 5809 5810 5812 5813 5815 5816 5818 5819 5821 5822 5824 5825 5827 5828 5830 5831 5833 5834 5836 5837
5828 5825 5824 5821 5819 5817 5815 5813 5811 5809 5807 5806 5804 5803 5802 5801 5800 5800 5800 5800 5800 5801 5801 5802 5803 5804 5806 5807 5809 5811 5813 5814 5816 5817 5819 5820 5822 5823 5825 5827 5828 5829 5831
5821 5819 5817 5815 5812 5810 5808 5806 5804 5802 5800 5798 5796 5795 5794 5793 5793 5793 5792 5792 5793 5793 5794 5794 5795 5797 5798 5800 5802 5804 5806 5807 5809 5811 5812 5813 5815 5817 5818 5820 5821 5822 5824
5815 5813 5810 5807 5805 5802 5800 5798 5796 5794 5792 5791 5789 5788 5786 5786 5785 5785 5784 5785 5785 5785 5786 5787 5788 5789 5790 5792 5794 5796 5798 5800 5802 5804 5805 5806 5808 5809 5811 5813 5814 5816 5817
5808 5806 5803 5800 5798 5795 5793 5791 5788 5786 5785 5783 5782 5780 5779 5778 5777 5777 5777 5776 5777 5777 5778 5779 5780 5781 5783 5784 5787 5789 5791 5792 5794 5796 5798 5799 5801 5802 5804 5805 5807 5808 5810
5801 5798 5796 5793 5790 5788 5785 5783 5781 5779 5777 5775 5774 5773 5772 5771 5769 5769 5769 5768 5769 5769 5770 5771 5772 5773 5775 5777 5779 5781 5783 5785 5787 5788 5790 5791 5793 5795 5796 5798 5799 5801 5802
5795 5792 5789 5786 5783 5780 5778 5775 5773 5771 5769 5767 5766 5765 5764 5764 5763 5762 5761 5761 5761 5762 5763 5764 5765 5766 5767 5769 5771 5773 5775 5777 5779 5780 5782 5784 5786 5787 5789 5790 5792 5793 5795
5788 5785 5781 5778 5775 5772 5769 5767 5765 5763 5761 5759 5758 5757 5756 5756 5756 5756 5755 5754 5755 5755 5756 5756 5757 5759 5760 5762 5763 5765 5767 5769 5771 5772 5774 5776 5778 5779 5781 5782 5784 5785 5787
5782 5779 5775 5771 5768 5765 5762 5759 5757 5755 5753 5752 5750 5749 5748 5747 5747 5748 5748 5748 5748 5748 5749 5749 5750 5752 5753 5754 5756 5758 5759 5761 5762 5764 5766 5768 5770 5771 5773 5775 5776 5777 5778
5777 5773 5769 5765 5761 5758 5755 5752 5750 5748 5746 5744 5743 5741 5741 5740 5740 5740 5740 5741 5741 5742 5742 5742 5744 5745 5746 5747 5748 5749 5751 5753 5754 5756 5757 5760 5761 5763 5765 5767 5768 5769 5771
5771 5767 5763 5759 5755 5752 5749 5746 5743 5741 5739 5737 5736 5734 5734 5733 5732 5732 5733 5733 5734 5735 5735 5736 5736 5737 5738 5739 5740 5742 5743 5744 5746 5747 5749 5751 5753 5755 5757 5758 5760 5761 5763
5766 5762 5758 5754 5750 5746 5743 5740 5737 5735 5733 5731 5729 5728 5726 5726 5725 5725 5725 5726 5726 5727 5728 5728 5728 5729 5730 5731 5732 5734 5735 5737 5738 5739 5741 5743 5745 5747 5749 5750 5752 5753 5755
5761 5757 5753 5749 5745 5742 5738 5735 5732 5730 5727 5725 5723 5721 5720 5719 5718 5718 5718 5719 5719 5720 5721 5721 5721 5721 5722 5723 5724 5726 5727 5728 5730 5731 5732 5734 5736 5738 5740 5742 5743 5745 5747
5756 5752 5748 5744 5740 5737 5734 5730 5727 5724 5722 5719 5717 5715 5714 5713 5712 5711 5712 5712 5712 5712 5713 5713 5713 5714 5715 5715 5716 5718 5719 5720 5721 5723 5724 5726 5728 5730 5732 5733 5735 5737 5738
5750 5746 5743 5739 5736 5732 5729 5725 5722 5720 5717 5714 5712 5710 5708 5707 5706 5705 5705 5705 5705 5705 5705 5705 5705 5706 5706 5707 5708 5709 5711 5712 5713 5715 5716 5717 5719 5721 5723 5725 5726 5728 5730
5745 5741 5738 5734 5731 5728 5724 5721 5718 5715 5712 5710 5707 5705 5703 5701 5700 5699 5699 5698 5698 5697 5697 5697 5697 5697 5698 5699 5700 5701 5702 5704 5705 5706 5708 5709 5711 5712 5714 5716 5718 5720 5721
5740 5737 5733 5730 5727 5723 5720 5717 5714 5710 5708 5705 5702 5700 5698 5696 5695 5694 5693 5692 5691 5690 5689 5689 5689 5689 5690 5691 5692 5693 5694 5695 5697 5698 5699 5701 5703 5704 5706 5707 5709 5711 5713
5736 5733 5729 5726 5723 5719 5716 5713 5709 5707 5704 5701 5698 5695 5693 5691 5690 5688 5687 5686 5684 5683 5683 5682 5682 5682 5683 5683 5685 5686 5687 5688 5689 5690 5691 5693 5694 5696 5697 5699 5701 5703 5704
5732 5729 5726 5723 5719 5716 5713 5709 5706 5703 5700 5697 5695 5692 5689 5687 5685 5683 5681 5680 5678 5677 5676 5676 5676 5676 5677 5677 5678 5679 5680 5681 5682 5683 5684 5685 5687 5688 5689 5691 5693 5695 5696
5729 5726 5723 5720 5717 5713 5710 5706 5703 5700 5697 5694 5691 5688 5686 5683 5681 5678 5677 5675 5673 5672 5671 5671 5671 5671 5671 5671 5671 5672 5673 5674 5676 5677 5677 5678 5680 5681 5682 5684 5685 5687 5689
5726 5723 5720 5717 5714 5710 5707 5704 5700 5697 5694 5691 5688 5685 5682 5680 5677 5674 5672 5671 5669 5667 5667 5666 5666 5666 5666 5665 5666 5666 5667 5668 5669 5670 5671 5672 5673 5674 5675 5677 5678 5680 5681
5723 5721 5717 5714 5711 5708 5704 5701 5697 5694 5691 5688 5685 5682 5679 5677 5674 5672 5669 5667 5666 5664 5663 5662 5661 5661 5661 5660 5661 5661 5661 5662 5663 5663 5664 5666 5666 5667 5669 5670 5671 5672 5673
5721 5718 5715 5712 5709 5705 5702 5698 5695 5691 5688 5685 5682 5679 5676 5673 5671 5668 5666 5664 5662 5660 5658 5657 5656 5656 5655 5655 5655 5655 5655 5656 5657 5657 5658 5659 5660 5661 5662 5663 5664 5665 5666
5719 5716 5713 5709 5706 5703 5699 5696 5692 5689 5686 5682 5679 5676 5673 5670 5667 5665 5662 5660 5658 5656 5654 5653 5651 5650 5650 5649 5649 5649 5649 5650 5650 5651 5652 5653 5653 5654 5655 5656 5657 5658 5659
Wind_Speed
24 25 25 26 26 27 27 28 27 27 27 28 28 27 28 28 28 28 28 28 28 28 27 27 27 27 27 26 26 26 26 27 26 25 24 24 24 24 23 23 22 22 22
25 26 26 27 27 27 27 28 28 28 28 29 29 29 30 30 30 30 30 30 30 30 28 28 28 27 28 27 27 27 27 27 28 26 26 25 26 26 25 25 25 24 25
26 26 27 27 28 28 29 29 28 28 28 29 29 30 30 31 31 31 31 32 31 31 30 29 28 28 29 28 28 28 28 26 27 27 27 26 26 27 26 26 26 26 25
26 26 27 27 29 29 29 29 28 28 28 29 29 30 30 31 31 31 31 31 31 31 30 30 30 30 30 30 29 28 28 27 27 27 27 27 27 27 28 28 28 27 27
26 27 28 29 30 29 29 29 29 28 28 29 29 30 30 29 30 30 30 31 30 30 31 30 30 31 31 30 30 29 28 28 28 28 28 28 28 28 28 29 29 29 28
27 28 29 30 30 30 30 30 29 29 29 29 29 30 30 30 29 29 29 30 30 31 31 30 30 31 31 31 31 30 30 29 29 29 30 29 29 29 29 29 29 29 29
28 29 29 29 30 30 30 30 30 30 29 29 30 30 30 29 29 29 29 29 30 29 30 30 29 30 31 31 32 31 31 31 30 30 31 30 30 29 29 29 30 29 30
28 28 29 29 30 30 30 30 30 30 29 30 30 29 29 28 29 29 28 28 29 28 28 29 29 28 30 31 31 31 31 31 31 31 31 30 30 30 30 30 30 30 30
27 28 29 29 30 30 29 30 30 30 30 29 29 28 28 27 27 28 28 28 28 28 28 29 29 28 30 31 31 33 32 32 32 31 31 31 30 30 31 31 31 31 31
27 28 29 29 30 30 29 29 29 30 30 29 29 28 28 27 27 27 28 29 28 28 27 27 28 28 29 30 31 32 32 32 33 32 31 32 31 31 31 31 31 32 32
26 27 28 28 28 28 28 29 29 30 29 28 27 27 28 28 27 26 27 27 28 28 28 27 28 28 28 30 32 32 32 33 33 33 33 33 32 32 32 31 31 32 32
26 27 27 27 27 27 27 28 27 27 27 26 27 27 27 26 26 26 27 27 27 27 27 26 28 28 28 29 31 32 32 33 34 33 34 34 33 33 32 31 31 31 32
26 26 26 27 26 26 25 26 25 25 26 26 25 24 24 25 26 26 26 26 26 26 26 26 28 30 30 30 30 31 31 31 32 33 33 34 34 34 34 32 31 32 32
25 25 26 26 25 24 24 24 24 23 23 24 24 24 24 25 26 26 25 25 25 26 26 27 28 29 30 31 30 31 31 31 32 33 33 34 34 34 34 34 33 33 32
25 25 25 25 24 23 23 22 23 23 23 23 23 24 24 24 24 24 24 25 25 25 26 27 27 28 29 30 31 31 31 32 32 33 33 33 33 34 34 34 33 33 32
25 25 25 24 24 23 22 21 21 21 22 22 22 22 23 23 23 24 24 25 26 26 26 27 28 28 28 30 30 31 31 32 32 32 32 33 33 34 34 34 34 33 34
24 24 24 24 23 23 22 21 21 21 21 21 21 21 22 22 22 22 23 24 25 26 26 27 28 29 29 28 30 30 30 30 30 31 31 31 32 33 33 33 33 33 33
23 23 23 23 23 23 22 22 21 21 21 21 21 21 21 22 22 21 21 22 24 24 25 26 27 27 27 27 27 28 28 30 31 30 30 30 30 31 31 32 33 33 33
21 21 22 22 22 22 22 22 20 20 20 20 20 20 20 20 20 20 21 21 22 23 24 24 24 25 25 25 25 26 27 28 29 29 29 29 30 30 30 31 31 32 33
20 20 20 20 20 20 20 20 20 19 19 18 18 18 19 18 19 20 20 20 21 22 22 22 22 22 22 23 24 25 25 25 26 28 28 29 29 29 30 30 30 31 32
19 18 18 18 19 19 19 19 19 19 19 18 18 18 18 18 18 19 19 20 20 21 20 20 21 21 21 22 22 23 24 24 25 26 25 26 27 28 28 29 29 29 30
17 17 17 18 18 19 19 19 19 19 18 18 18 18 18 18 18 19 19 19 19 18 18 18 18 19 19 20 20 22 22 23 23 24 24 25 25 26 27 27 28 28 28
17 17 17 18 18 19 19 19 19 19 19 18 18 17 17 17 17 17 17 16 16 16 16 16 17 18 18 19 19 20 21 22 22 23 23 23 24 26 26 26 27 28 28
16 16 17 18 18 18 19 19 19 19 19 18 18 17 17 17 16 16 16 16 16 16 17 17 17 18 18 19 19 19 20 20 21 22 23 23 22 23 25 26 26 27 28
16 16 17 17 18 19 19 19 19 19 19 19 18 17 17 17 17 16 17 16 16 17 17 17 17 17 18 19 20 21 20 20 20 21 21 22 22 23 24 25 24 25 26
16 16 16 17 18 19 19 19 20 20 20 19 18 18 18 18 18 17 17 17 17 17 17 18 18 18 18 18 18 19 20 20 20 20 22 22 22 23 23 24 24 25 25
Wind_Direction
290 290 290 288 289 290 289 288 288 286 283 281 279 276 273 270 268 267 267 269 269 268 266 263 260 258 253 252 253 254 254 251 250 251 252 252 251 250 250 250 250 249 248
289 289 288 288 289 289 289 286 286 285 283 281 279 277 274 271 269 267 267 268 268 266 264 263 261 257 254 253 253 253 255 254 252 251 252 253 252 251 251 251 251 252 251
290 290 290 290 290 289 288 286 285 283 281 280 279 276 273 270 268 267 269 269 269 266 262 261 258 256 253 253 254 254 253 253 252 251 252 252 253 251 251 251 251 252 252
290 290 291 291 290 288 288 285 286 285 283 281 280 277 274 272 270 269 269 269 268 266 263 261 257 255 253 252 252 253 253 253 252 252 252 254 254 253 252 252 252 252 252
290 290 290 289 289 289 289 288 286 285 283 282 281 279 277 274 271 271 270 270 267 264 262 260 257 253 253 252 251 252 253 254 253 253 253 255 255 254 253 252 252 252 252
291 291 291 290 290 290 289 288 287 284 283 283 281 280 278 273 271 270 270 269 266 263 259 257 257 254 253 252 251 252 253 254 254 254 254 256 255 255 254 252 252 252 253
293 292 291 291 291 289 289 287 286 286 284 282 281 279 276 273 271 269 269 268 266 263 259 256 255 254 253 252 252 252 253 254 253 253 254 254 255 254 253 253 253 252 253
294 293 292 291 290 290 289 288 287 286 285 281 279 278 276 275 274 270 269 267 264 261 260 256 255 254 253 252 250 250 251 252 253 253 253 253 254 254 253 253 252 252 251
297 295 294 292 291 290 288 287 286 285 283 282 279 278 276 275 272 271 271 268 265 263 262 258 254 253 253 252 251 250 250 251 252 253 253 252 252 254 254 254 253 253 252
301 299 296 294 292 291 290 288 285 283 282 281 279 278 276 274 272 269 268 268 265 262 261 259 254 254 255 253 252 252 251 251 251 251 252 252 252 252 253 254 254 253 252
307 305 301 298 296 295 293 291 288 285 281 279 277 276 275 272 272 269 266 265 264 263 262 259 255 254 255 254 251 250 252 252 253 252 253 252 252 252 252 254 254 252 250
308 306 305 303 301 297 294 294 293 289 284 281 278 275 274 272 270 269 264 263 262 262 262 258 255 254 254 254 253 252 253 253 253 253 252 250 251 252 252 253 252 251 251
308 309 308 308 307 303 300 297 294 290 287 285 282 277 274 272 269 268 264 263 261 260 259 259 257 255 253 254 254 254 255 254 254 254 252 251 250 249 250 251 251 250 250
309 310 311 310 309 307 303 300 296 295 292 289 285 281 277 274 270 268 265 262 261 260 259 258 259 257 255 254 255 256 256 256 255 255 253 251 249 249 250 250 251 251 250
310 310 311 311 309 308 306 302 301 299 296 293 289 286 283 279 273 270 267 265 264 262 259 257 258 257 256 256 256 257 257 256 254 254 252 249 249 249 250 250 251 250 250
311 311 312 312 311 310 311 308 306 303 299 297 294 290 289 286 280 276 272 269 268 267 263 261 260 260 260 259 258 259 259 257 254 254 252 251 250 249 250 250 250 250 250
312 312 312 313 312 312 311 309 307 306 304 301 297 292 288 287 283 279 276 274 272 270 268 264 263 262 262 262 261 259 259 258 256 255 254 254 252 252 251 251 251 249 251
312 312 313 313 312 312 312 311 308 307 306 305 302 297 292 287 283 281 280 277 276 274 272 269 266 263 263 263 261 258 257 257 257 255 254 254 254 252 251 250 251 249 250
314 316 317 317 316 315 316 315 314 312 311 308 305 302 298 292 286 285 283 280 280 278 275 273 270 265 263 261 261 258 256 256 256 255 254 253 254 253 253 252 251 250 249
316 317 319 322 323 322 321 320 319 318 317 314 310 308 305 298 291 289 287 284 283 282 279 274 271 268 265 263 261 259 257 257 257 256 253 252 252 252 252 251 250 250 249
318 319 321 324 326 326 325 324 322 321 318 317 316 314 310 304 300 296 291 287 285 283 280 277 273 270 265 263 261 261 258 257 258 258 254 252 252 251 251 250 249 251 251
321 322 324 325 325 327 328 326 322 321 319 318 317 317 316 312 305 300 296 291 288 286 282 281 277 273 268 265 263 262 259 257 256 257 256 253 252 252 253 252 252 252 251
324 325 326 328 328 327 327 327 326 326 326 324 322 321 320 318 314 311 306 302 298 293 287 283 279 277 272 267 265 263 262 262 258 256 255 255 255 253 254 254 255 253 252
325 324 325 326 328 328 327 328 330 332 331 329 325 322 320 318 318 314 310 306 302 296 290 284 281 279 274 269 266 264 264 263 259 257 256 255 254 253 255 255 255 254 252
326 323 324 326 328 330 330 332 333 332 331 330 327 324 321 317 315 311 308 304 301 298 293 288 285 282 279 273 268 265 264 262 259 258 258 258 257 256 257 256 256 256 253
328 328 329 331 331 331 329 330 333 333 332 330 327 326 324 319 316 313 310 306 302 299 294 291 287 285 281 277 273 269 264 262 260 258 259 260 261 260 260 258 257 256 254